Location: Dillon
(41.1766°N, 107.0923°W)
Time: 12:20:21
(UTC+00:00)

AO-92 - Pass Details

Date: 07 July 2022
Orbit: 469 x 481 km, 97.4° (Epoch: 10 August)

Event Time Altitude Azimuth Distance (km) Brightness Sun altitude
Exits shadow 04:28:33 21° 91° (E) 1,139 ? -15.7°
Maximum altitude 04:29:25 23° 70° (ENE) 1,075 ? -15.8°
Drops below altitude 10° 04:32:16 10° 17° (NNE) 1,668 ? -16.1°
Sets 04:34:38 0° 2° (N) 2,555 ? -16.4°
